Location: Santa Barbara
(34.4500°N, 119.7700°W)
Time: 01:17:14
(UTC-07:00)

Cosmos 1892 Rocket - Visible Passes

Search period start: 02 May 2016 00:00
Search period end: 12 May 2016 00:00
Orbit: 606 x 634 km, 82.5° (Epoch: 01 May)

Date Brightness Start Highest point End Pass type
(mag) Time Alt. Az. Time Alt. Az. Time Alt. Az.
03 May 6.6 00:02:13 12° N 00:02:13 12° N 00:02:31 10° N visible
04 May 6.6 00:19:36 12° N 00:19:36 12° N 00:20:01 10° N visible
05 May 6.7 00:36:57 11° NNW 00:36:57 11° NNW 00:37:04 10° NNW visible
05 May 6.3 23:17:09 13° NNE 23:17:09 13° NNE 23:17:43 10° NNE visible
06 May 6.1 23:34:27 17° N 23:34:27 17° N 23:35:32 10° N visible
07 May 6.2 23:51:45 18° NNW 23:51:45 18° NNW 23:53:00 10° N visible
08 May 6.0 22:31:53 14° NE 22:31:53 14° NE 22:32:37 10° NNE visible
09 May 6.4 00:09:02 14° NW 00:09:02 14° NW 00:09:58 10° NNW visible
09 May 5.5 22:49:08 22° NNE 22:49:08 22° NNE 22:50:48 10° NNE visible
10 May 5.3 23:06:21 29° N 23:06:21 29° N 23:08:34 10° N visible
11 May 5.8 21:46:24 12° ENE 21:46:24 12° ENE 21:46:59 10° NE visible
11 May 5.6 23:23:33 26° NW 23:23:33 26° NW 23:25:59 10° NNW visible
